owner,sensor,date,latitude,longitude,air_pressure(mBar),qcFlag 
COMPS,ioos:station:USF.COMPS:CAM:1,2008-10-01T00:00:00Z,27.7650,-82.6490,1010.53,1111122 
COMPS,ioos:station:USF.COMPS:CAM:1,2008-10-01T01:00:00Z,27.7650,-82.6490,1011.16,1111122 
COMPS,ioos:station:USF.COMPS:CAM:1,2008-10-01T02:00:00Z,27.7650,-82.6490,1011.56,1111122 
COMPS,ioos:station:USF.COMPS:CAM:1,2008-10-01T03:00:00Z,27.7650,-82.6490,1012.17,1111122 
COMPS,ioos:station:USF.COMPS:CAM:1,2008-10-01T04:00:00Z,27.7650,-82.6490,1012.36,1111122 
COMPS,ioos:station:USF.COMPS:CAM:1,2008-10-01T05:00:00Z,27.7650,-82.6490,1011.81,1111122 
COMPS,ioos:station:USF.COMPS:CAM:1,2008-10-01T06:00:00Z,27.7650,-82.6490,1011.44,1111122 
COMPS,ioos:station:USF.COMPS:CAM:1,2008-10-01T07:00:00Z,27.7650,-82.6490,1010.85,1111122 
COMPS,ioos:station:USF.COMPS:CAM:1,2008-10-01T08:00:00Z,27.7650,-82.6490,1010.18,1111122 
COMPS,ioos:station:USF.COMPS:CAM:1,2008-10-01T09:00:00Z,27.7650,-82.6490,1009.68,1111122 
COMPS,ioos:station:USF.COMPS:CAM:1,2008-10-01T10:00:00Z,27.7650,-82.6490,1009.65,1111122 
COMPS,ioos:station:USF.COMPS:CAM:1,2008-10-01T11:00:00Z,27.7650,-82.6490,1009.9,1111122 
COMPS,ioos:station:USF.COMPS:CAM:1,2008-10-01T12:00:00Z,27.7650,-82.6490,1010.24,1111122 
COMPS,ioos:station:USF.COMPS:CAM:1,2008-10-01T13:00:00Z,27.7650,-82.6490,1010.68,1111122 
COMPS,ioos:station:USF.COMPS:CAM:1,2008-10-01T14:00:00Z,27.7650,-82.6490,1011.0,1111122 
COMPS,ioos:station:USF.COMPS:CAM:1,2008-10-01T15:00:00Z,27.7650,-82.6490,1011.08,1111122 
COMPS,ioos:station:USF.COMPS:CAM:1,2008-10-01T16:00:00Z,27.7650,-82.6490,1011.0,1111122 
COMPS,ioos:station:USF.COMPS:CAM:1,2008-10-01T17:00:00Z,27.7650,-82.6490,1010.49,1111122 
COMPS,ioos:station:USF.COMPS:CAM:1,2008-10-01T18:00:00Z,27.7650,-82.6490,1009.61,1111122 
COMPS,ioos:station:USF.COMPS:CAM:1,2008-10-01T19:00:00Z,27.7650,-82.6490,1008.96,1111122 
COMPS,ioos:station:USF.COMPS:CAM:1,2008-10-01T20:00:00Z,27.7650,-82.6490,1008.72,1111122 
COMPS,ioos:station:USF.COMPS:CAM:1,2008-10-01T21:00:00Z,27.7650,-82.6490,1008.4,1111122 
COMPS,ioos:station:USF.COMPS:CAM:1,2008-10-01T22:00:00Z,27.7650,-82.6490,1008.41,1111122 
COMPS,ioos:station:USF.COMPS:CAM:1,2008-10-01T23:00:00Z,27.7650,-82.6490,1008.81,1111122 
COMPS,ioos:station:USF.COMPS:CAM:1,2008-10-02T00:00:00Z,27.7650,-82.6490,1009.1,1111122 
COMPS,ioos:station:USF.COMPS:CAM:1,2008-10-02T01:00:00Z,27.7650,-82.6490,1009.46,1111122 
COMPS,ioos:station:USF.COMPS:CAM:1,2008-10-02T02:00:00Z,27.7650,-82.6490,1010.1,1111122 
COMPS,ioos:station:USF.COMPS:CAM:1,2008-10-02T03:00:00Z,27.7650,-82.6490,1010.41,1111122 
COMPS,ioos:station:USF.COMPS:CAM:1,2008-10-02T04:00:00Z,27.7650,-82.6490,1010.48,1111122 
COMPS,ioos:station:USF.COMPS:CAM:1,2008-10-02T05:00:00Z,27.7650,-82.6490,1010.3,1111122 
COMPS,ioos:station:USF.COMPS:CAM:1,2008-10-02T06:00:00Z,27.7650,-82.6490,1010.04,1111122 
COMPS,ioos:station:USF.COMPS:CAM:1,2008-10-02T07:00:00Z,27.7650,-82.6490,1009.96,1111122 
COMPS,ioos:station:USF.COMPS:CAM:1,2008-10-02T08:00:00Z,27.7650,-82.6490,1009.65,1111122 
COMPS,ioos:station:USF.COMPS:CAM:1,2008-10-02T09:00:00Z,27.7650,-82.6490,1009.52,1111122 
COMPS,ioos:station:USF.COMPS:CAM:1,2008-10-02T10:00:00Z,27.7650,-82.6490,1009.65,1111122 
COMPS,ioos:station:USF.COMPS:CAM:1,2008-10-02T11:00:00Z,27.7650,-82.6490,1010.08,1111122 
COMPS,ioos:station:USF.COMPS:CAM:1,2008-10-02T12:00:00Z,27.7650,-82.6490,1010.5,1111122 
COMPS,ioos:station:USF.COMPS:CAM:1,2008-10-02T13:00:00Z,27.7650,-82.6490,1011.16,1111122 
COMPS,ioos:station:USF.COMPS:CAM:1,2008-10-02T14:00:00Z,27.7650,-82.6490,1011.74,1111122 
COMPS,ioos:station:USF.COMPS:CAM:1,2008-10-02T15:00:00Z,27.7650,-82.6490,1012.04,1111122 
COMPS,ioos:station:USF.COMPS:CAM:1,2008-10-02T16:00:00Z,27.7650,-82.6490,1012.09,1111122 
COMPS,ioos:station:USF.COMPS:CAM:1,2008-10-02T17:00:00Z,27.7650,-82.6490,1011.84,1111122 
COMPS,ioos:station:USF.COMPS:CAM:1,2008-10-02T18:00:00Z,27.7650,-82.6490,1011.14,1111122 
COMPS,ioos:station:USF.COMPS:CAM:1,2008-10-02T19:00:00Z,27.7650,-82.6490,1010.5,1111122 
COMPS,ioos:station:USF.COMPS:CAM:1,2008-10-02T20:00:00Z,27.7650,-82.6490,1009.9,1111122 
COMPS,ioos:station:USF.COMPS:CAM:1,2008-10-02T21:00:00Z,27.7650,-82.6490,1010.04,1111122 
COMPS,ioos:station:USF.COMPS:CAM:1,2008-10-02T22:00:00Z,27.7650,-82.6490,1010.02,1111122 
COMPS,ioos:station:USF.COMPS:CAM:1,2008-10-02T23:00:00Z,27.7650,-82.6490,1010.45,1111122 
COMPS,ioos:station:USF.COMPS:CAM:1,2008-10-03T00:00:00Z,27.7650,-82.6490,1011.04,1111122 
COMPS,ioos:station:USF.COMPS:CAM:1,2008-10-03T01:00:00Z,27.7650,-82.6490,1011.86,1111122 
COMPS,ioos:station:USF.COMPS:CAM:1,2008-10-03T02:00:00Z,27.7650,-82.6490,1012.48,1111122 
COMPS,ioos:station:USF.COMPS:CAM:1,2008-10-03T03:00:00Z,27.7650,-82.6490,1012.92,1111122 
COMPS,ioos:station:USF.COMPS:CAM:1,2008-10-03T04:00:00Z,27.7650,-82.6490,1012.74,1111122 
COMPS,ioos:station:USF.COMPS:CAM:1,2008-10-03T05:00:00Z,27.7650,-82.6490,1012.81,1111122 
COMPS,ioos:station:USF.COMPS:CAM:1,2008-10-03T06:00:00Z,27.7650,-82.6490,1012.85,1111122 
COMPS,ioos:station:USF.COMPS:CAM:1,2008-10-03T07:00:00Z,27.7650,-82.6490,1012.78,1111122 
COMPS,ioos:station:USF.COMPS:CAM:1,2008-10-03T08:00:00Z,27.7650,-82.6490,1012.92,1111122 
COMPS,ioos:station:USF.COMPS:CAM:1,2008-10-03T09:00:00Z,27.7650,-82.6490,1013.1,1111122 
COMPS,ioos:station:USF.COMPS:CAM:1,2008-10-03T10:00:00Z,27.7650,-82.6490,1013.46,1111122 
COMPS,ioos:station:USF.COMPS:CAM:1,2008-10-03T11:00:00Z,27.7650,-82.6490,1014.1,1111122 
COMPS,ioos:station:USF.COMPS:CAM:1,2008-10-03T12:00:00Z,27.7650,-82.6490,1014.92,1111122 
COMPS,ioos:station:USF.COMPS:CAM:1,2008-10-03T13:00:00Z,27.7650,-82.6490,1015.62,1111122 
COMPS,ioos:station:USF.COMPS:CAM:1,2008-10-03T14:00:00Z,27.7650,-82.6490,1016.08,1111122 
COMPS,ioos:station:USF.COMPS:CAM:1,2008-10-03T15:00:00Z,27.7650,-82.6490,1016.33,1111122 
COMPS,ioos:station:USF.COMPS:CAM:1,2008-10-03T16:00:00Z,27.7650,-82.6490,1016.16,1111122 
COMPS,ioos:station:USF.COMPS:CAM:1,2008-10-03T17:00:00Z,27.7650,-82.6490,1015.61,1111122 
COMPS,ioos:station:USF.COMPS:CAM:1,2008-10-03T18:00:00Z,27.7650,-82.6490,1015.01,1111122 
COMPS,ioos:station:USF.COMPS:CAM:1,2008-10-03T19:00:00Z,27.7650,-82.6490,1014.28,1111122 
COMPS,ioos:station:USF.COMPS:CAM:1,2008-10-03T20:00:00Z,27.7650,-82.6490,1013.62,1111122 
COMPS,ioos:station:USF.COMPS:CAM:1,2008-10-03T21:00:00Z,27.7650,-82.6490,1013.52,1111122 
COMPS,ioos:station:USF.COMPS:CAM:1,2008-10-03T22:00:00Z,27.7650,-82.6490,1013.65,1111122 
COMPS,ioos:station:USF.COMPS:CAM:1,2008-10-03T23:00:00Z,27.7650,-82.6490,1013.85,1111122 
COMPS,ioos:station:USF.COMPS:CAM:1,2008-10-04T00:00:00Z,27.7650,-82.6490,1014.34,1111122 
COMPS,ioos:station:USF.COMPS:CAM:1,2008-10-04T01:00:00Z,27.7650,-82.6490,1015.26,1111122 
COMPS,ioos:station:USF.COMPS:CAM:1,2008-10-04T02:00:00Z,27.7650,-82.6490,1016.06,1111122 
COMPS,ioos:station:USF.COMPS:CAM:1,2008-10-04T03:00:00Z,27.7650,-82.6490,1016.64,1111122 
COMPS,ioos:station:USF.COMPS:CAM:1,2008-10-04T04:00:00Z,27.7650,-82.6490,1016.89,1111122 
COMPS,ioos:station:USF.COMPS:CAM:1,2008-10-04T05:00:00Z,27.7650,-82.6490,1016.86,1111122 
COMPS,ioos:station:USF.COMPS:CAM:1,2008-10-04T06:00:00Z,27.7650,-82.6490,1016.58,1111122 
COMPS,ioos:station:USF.COMPS:CAM:1,2008-10-04T07:00:00Z,27.7650,-82.6490,1016.33,1111122 
COMPS,ioos:station:USF.COMPS:CAM:1,2008-10-04T08:00:00Z,27.7650,-82.6490,1016.46,1111122 
COMPS,ioos:station:USF.COMPS:CAM:1,2008-10-04T09:00:00Z,27.7650,-82.6490,1016.66,1111122 
COMPS,ioos:station:USF.COMPS:CAM:1,2008-10-04T10:00:00Z,27.7650,-82.6490,1016.65,1111122 
COMPS,ioos:station:USF.COMPS:CAM:1,2008-10-04T11:00:00Z,27.7650,-82.6490,1017.29,1111122 
COMPS,ioos:station:USF.COMPS:CAM:1,2008-10-04T12:00:00Z,27.7650,-82.6490,1017.89,1111122 
COMPS,ioos:station:USF.COMPS:CAM:1,2008-10-04T13:00:00Z,27.7650,-82.6490,1018.37,1111122 
COMPS,ioos:station:USF.COMPS:CAM:1,2008-10-04T14:00:00Z,27.7650,-82.6490,1018.48,1111122 
COMPS,ioos:station:USF.COMPS:CAM:1,2008-10-04T15:00:00Z,27.7650,-82.6490,1018.45,1111122 
COMPS,ioos:station:USF.COMPS:CAM:1,2008-10-04T16:00:00Z,27.7650,-82.6490,1018.22,1111122 
COMPS,ioos:station:USF.COMPS:CAM:1,2008-10-04T17:00:00Z,27.7650,-82.6490,1017.72,1111122 
COMPS,ioos:station:USF.COMPS:CAM:1,2008-10-04T18:00:00Z,27.7650,-82.6490,1016.84,1111122 
COMPS,ioos:station:USF.COMPS:CAM:1,2008-10-04T19:00:00Z,27.7650,-82.6490,1016.13,1111122 
COMPS,ioos:station:USF.COMPS:CAM:1,2008-10-04T20:00:00Z,27.7650,-82.6490,1015.76,1111122 
COMPS,ioos:station:USF.COMPS:CAM:1,2008-10-04T21:00:00Z,27.7650,-82.6490,1015.64,1111122 
COMPS,ioos:station:USF.COMPS:CAM:1,2008-10-04T22:00:00Z,27.7650,-82.6490,1016.02,1111122 
COMPS,ioos:station:USF.COMPS:CAM:1,2008-10-04T23:00:00Z,27.7650,-82.6490,1016.57,1111122 
COMPS,ioos:station:USF.COMPS:CAM:1,2008-10-05T00:00:00Z,27.7650,-82.6490,1017.2,1111122 
COMPS,ioos:station:USF.COMPS:CAM:1,2008-10-05T01:00:00Z,27.7650,-82.6490,1017.42,1111122 
COMPS,ioos:station:USF.COMPS:CAM:1,2008-10-05T02:00:00Z,27.7650,-82.6490,1017.73,1111122 
COMPS,ioos:station:USF.COMPS:CAM:1,2008-10-05T03:00:00Z,27.7650,-82.6490,1018.1,1111122 
COMPS,ioos:station:USF.COMPS:CAM:1,2008-10-05T04:00:00Z,27.7650,-82.6490,1018.8,1111122 
COMPS,ioos:station:USF.COMPS:CAM:1,2008-10-05T05:00:00Z,27.7650,-82.6490,1018.6,1111122 
COMPS,ioos:station:USF.COMPS:CAM:1,2008-10-05T06:00:00Z,27.7650,-82.6490,1018.22,1111122 
COMPS,ioos:station:USF.COMPS:CAM:1,2008-10-05T07:00:00Z,27.7650,-82.6490,1018.1,1111122 
COMPS,ioos:station:USF.COMPS:CAM:1,2008-10-05T08:00:00Z,27.7650,-82.6490,1017.7,1111122 
COMPS,ioos:station:USF.COMPS:CAM:1,2008-10-05T09:00:00Z,27.7650,-82.6490,1017.41,1111122 
COMPS,ioos:station:USF.COMPS:CAM:1,2008-10-05T10:00:00Z,27.7650,-82.6490,1017.61,1111122 
COMPS,ioos:station:USF.COMPS:CAM:1,2008-10-05T11:00:00Z,27.7650,-82.6490,1017.73,1111122 
COMPS,ioos:station:USF.COMPS:CAM:1,2008-10-05T12:00:00Z,27.7650,-82.6490,1017.97,1111122 
COMPS,ioos:station:USF.COMPS:CAM:1,2008-10-05T13:00:00Z,27.7650,-82.6490,1018.4,1111122 
COMPS,ioos:station:USF.COMPS:CAM:1,2008-10-05T14:00:00Z,27.7650,-82.6490,1018.65,1111122 
COMPS,ioos:station:USF.COMPS:CAM:1,2008-10-05T15:00:00Z,27.7650,-82.6490,1018.77,1111122 
COMPS,ioos:station:USF.COMPS:CAM:1,2008-10-05T16:00:00Z,27.7650,-82.6490,1018.52,1111122 
COMPS,ioos:station:USF.COMPS:CAM:1,2008-10-05T17:00:00Z,27.7650,-82.6490,1017.94,1111122 
COMPS,ioos:station:USF.COMPS:CAM:1,2008-10-05T18:00:00Z,27.7650,-82.6490,1016.86,1111122 
COMPS,ioos:station:USF.COMPS:CAM:1,2008-10-05T19:00:00Z,27.7650,-82.6490,1015.81,1111122 
COMPS,ioos:station:USF.COMPS:CAM:1,2008-10-05T20:00:00Z,27.7650,-82.6490,1015.44,1111122 
COMPS,ioos:station:USF.COMPS:CAM:1,2008-10-05T21:00:00Z,27.7650,-82.6490,1015.61,1111122 
COMPS,ioos:station:USF.COMPS:CAM:1,2008-10-05T22:00:00Z,27.7650,-82.6490,1016.18,1111122 
COMPS,ioos:station:USF.COMPS:CAM:1,2008-10-05T23:00:00Z,27.7650,-82.6490,1016.61,1111122 
COMPS,ioos:station:USF.COMPS:CAM:1,2008-10-06T00:00:00Z,27.7650,-82.6490,1017.09,1111122 
COMPS,ioos:station:USF.COMPS:CAM:1,2008-10-06T01:00:00Z,27.7650,-82.6490,1017.4,1111122 
COMPS,ioos:station:USF.COMPS:CAM:1,2008-10-06T02:00:00Z,27.7650,-82.6490,1017.56,1111122 
COMPS,ioos:station:USF.COMPS:CAM:1,2008-10-06T03:00:00Z,27.7650,-82.6490,1017.6,1111122 
COMPS,ioos:station:USF.COMPS:CAM:1,2008-10-06T04:00:00Z,27.7650,-82.6490,1017.57,1111122 
COMPS,ioos:station:USF.COMPS:CAM:1,2008-10-06T05:00:00Z,27.7650,-82.6490,1017.01,1111122 
COMPS,ioos:station:USF.COMPS:CAM:1,2008-10-06T06:00:00Z,27.7650,-82.6490,1016.73,1111122 
COMPS,ioos:station:USF.COMPS:CAM:1,2008-10-06T07:00:00Z,27.7650,-82.6490,1016.46,1111122 
COMPS,ioos:station:USF.COMPS:CAM:1,2008-10-06T08:00:00Z,27.7650,-82.6490,1016.18,1111122 
COMPS,ioos:station:USF.COMPS:CAM:1,2008-10-06T09:00:00Z,27.7650,-82.6490,1015.96,1111122 
COMPS,ioos:station:USF.COMPS:CAM:1,2008-10-06T10:00:00Z,27.7650,-82.6490,1016.13,1111122 
COMPS,ioos:station:USF.COMPS:CAM:1,2008-10-06T11:00:00Z,27.7650,-82.6490,1016.46,1111122 
COMPS,ioos:station:USF.COMPS:CAM:1,2008-10-06T12:00:00Z,27.7650,-82.6490,1016.74,1111122 
COMPS,ioos:station:USF.COMPS:CAM:1,2008-10-06T14:00:00Z,27.7650,-82.6490,1017.38,1111122 
COMPS,ioos:station:USF.COMPS:CAM:1,2008-10-06T15:00:00Z,27.7650,-82.6490,1017.61,1111122 
COMPS,ioos:station:USF.COMPS:CAM:1,2008-10-06T16:00:00Z,27.7650,-82.6490,1017.58,1111122 
COMPS,ioos:station:USF.COMPS:CAM:1,2008-10-06T17:00:00Z,27.7650,-82.6490,1016.76,1111122 
COMPS,ioos:station:USF.COMPS:CAM:1,2008-10-06T18:00:00Z,27.7650,-82.6490,1015.73,1111122 
COMPS,ioos:station:USF.COMPS:CAM:1,2008-10-06T19:00:00Z,27.7650,-82.6490,1014.92,1111122 
COMPS,ioos:station:USF.COMPS:CAM:1,2008-10-06T20:00:00Z,27.7650,-82.6490,1014.85,1111122 
COMPS,ioos:station:USF.COMPS:CAM:1,2008-10-06T21:00:00Z,27.7650,-82.6490,1015.25,1111122 
COMPS,ioos:station:USF.COMPS:CAM:1,2008-10-06T22:00:00Z,27.7650,-82.6490,1015.92,1111122 
COMPS,ioos:station:USF.COMPS:CAM:1,2008-10-06T23:00:00Z,27.7650,-82.6490,1016.88,1111122 
COMPS,ioos:station:USF.COMPS:CAM:1,2008-10-07T00:00:00Z,27.7650,-82.6490,1017.01,1111122 
COMPS,ioos:station:USF.COMPS:CAM:1,2008-10-07T01:00:00Z,27.7650,-82.6490,1017.56,1111122 
COMPS,ioos:station:USF.COMPS:CAM:1,2008-10-07T02:00:00Z,27.7650,-82.6490,1017.96,1111122 
COMPS,ioos:station:USF.COMPS:CAM:1,2008-10-07T03:00:00Z,27.7650,-82.6490,1018.09,1111122 
COMPS,ioos:station:USF.COMPS:CAM:1,2008-10-07T04:00:00Z,27.7650,-82.6490,1017.58,1111122 
COMPS,ioos:station:USF.COMPS:CAM:1,2008-10-07T05:00:00Z,27.7650,-82.6490,1017.33,1111122 
COMPS,ioos:station:USF.COMPS:CAM:1,2008-10-07T06:00:00Z,27.7650,-82.6490,1017.22,1111122 
COMPS,ioos:station:USF.COMPS:CAM:1,2008-10-07T07:00:00Z,27.7650,-82.6490,1016.9,1111122 
COMPS,ioos:station:USF.COMPS:CAM:1,2008-10-07T08:00:00Z,27.7650,-82.6490,1016.49,1111122 
COMPS,ioos:station:USF.COMPS:CAM:1,2008-10-07T09:00:00Z,27.7650,-82.6490,1016.45,1111122 
COMPS,ioos:station:USF.COMPS:CAM:1,2008-10-07T10:00:00Z,27.7650,-82.6490,1016.72,1111122 
COMPS,ioos:station:USF.COMPS:CAM:1,2008-10-07T11:00:00Z,27.7650,-82.6490,1017.08,1111122 
COMPS,ioos:station:USF.COMPS:CAM:1,2008-10-07T12:00:00Z,27.7650,-82.6490,1017.56,1111122 
COMPS,ioos:station:USF.COMPS:CAM:1,2008-10-07T13:00:00Z,27.7650,-82.6490,1018.21,1111122 
COMPS,ioos:station:USF.COMPS:CAM:1,2008-10-07T14:00:00Z,27.7650,-82.6490,1018.36,1111122 
COMPS,ioos:station:USF.COMPS:CAM:1,2008-10-07T15:00:00Z,27.7650,-82.6490,1018.0,1111122 
COMPS,ioos:station:USF.COMPS:CAM:1,2008-10-07T16:00:00Z,27.7650,-82.6490,1017.92,1111122 
COMPS,ioos:station:USF.COMPS:CAM:1,2008-10-07T17:00:00Z,27.7650,-82.6490,1017.32,1111122 
COMPS,ioos:station:USF.COMPS:CAM:1,2008-10-07T18:00:00Z,27.7650,-82.6490,1016.37,1111122 
COMPS,ioos:station:USF.COMPS:CAM:1,2008-10-07T19:00:00Z,27.7650,-82.6490,1015.86,1111122 
COMPS,ioos:station:USF.COMPS:CAM:1,2008-10-07T20:00:00Z,27.7650,-82.6490,1015.4,1111122 
COMPS,ioos:station:USF.COMPS:CAM:1,2008-10-07T21:00:00Z,27.7650,-82.6490,1015.22,1111122 
COMPS,ioos:station:USF.COMPS:CAM:1,2008-10-07T22:00:00Z,27.7650,-82.6490,1015.25,1111122 
COMPS,ioos:station:USF.COMPS:CAM:1,2008-10-07T23:00:00Z,27.7650,-82.6490,1015.37,1111122 
COMPS,ioos:station:USF.COMPS:CAM:1,2008-10-08T00:00:00Z,27.7650,-82.6490,1016.04,1111122 
COMPS,ioos:station:USF.COMPS:CAM:1,2008-10-08T01:00:00Z,27.7650,-82.6490,1016.64,1111122 
COMPS,ioos:station:USF.COMPS:CAM:1,2008-10-08T02:00:00Z,27.7650,-82.6490,1016.96,1111122 
COMPS,ioos:station:USF.COMPS:CAM:1,2008-10-08T03:00:00Z,27.7650,-82.6490,1016.92,1111122 
COMPS,ioos:station:USF.COMPS:CAM:1,2008-10-08T04:00:00Z,27.7650,-82.6490,1016.89,1111122 
COMPS,ioos:station:USF.COMPS:CAM:1,2008-10-08T05:00:00Z,27.7650,-82.6490,1016.36,1111122 
COMPS,ioos:station:USF.COMPS:CAM:1,2008-10-08T06:00:00Z,27.7650,-82.6490,1015.82,1111122 
COMPS,ioos:station:USF.COMPS:CAM:1,2008-10-08T07:00:00Z,27.7650,-82.6490,1015.64,1111122 
COMPS,ioos:station:USF.COMPS:CAM:1,2008-10-08T08:00:00Z,27.7650,-82.6490,1014.82,1111122 
COMPS,ioos:station:USF.COMPS:CAM:1,2008-10-08T09:00:00Z,27.7650,-82.6490,1014.65,1111122 
COMPS,ioos:station:USF.COMPS:CAM:1,2008-10-08T10:00:00Z,27.7650,-82.6490,1014.84,1111122 
COMPS,ioos:station:USF.COMPS:CAM:1,2008-10-08T11:00:00Z,27.7650,-82.6490,1015.13,1111122 
COMPS,ioos:station:USF.COMPS:CAM:1,2008-10-08T12:00:00Z,27.7650,-82.6490,1015.12,1111122 
COMPS,ioos:station:USF.COMPS:CAM:1,2008-10-08T13:00:00Z,27.7650,-82.6490,1015.52,1111122 
COMPS,ioos:station:USF.COMPS:CAM:1,2008-10-08T14:00:00Z,27.7650,-82.6490,1015.53,1111122 
COMPS,ioos:station:USF.COMPS:CAM:1,2008-10-08T15:00:00Z,27.7650,-82.6490,1015.26,1111122 
COMPS,ioos:station:USF.COMPS:CAM:1,2008-10-08T16:00:00Z,27.7650,-82.6490,1015.38,1111122 
COMPS,ioos:station:USF.COMPS:CAM:1,2008-10-08T17:00:00Z,27.7650,-82.6490,1014.9,1111122 
COMPS,ioos:station:USF.COMPS:CAM:1,2008-10-08T18:00:00Z,27.7650,-82.6490,1014.24,1111122 
COMPS,ioos:station:USF.COMPS:CAM:1,2008-10-08T19:00:00Z,27.7650,-82.6490,1013.44,1111122 
COMPS,ioos:station:USF.COMPS:CAM:1,2008-10-08T20:00:00Z,27.7650,-82.6490,1012.94,1111122 
COMPS,ioos:station:USF.COMPS:CAM:1,2008-10-08T21:00:00Z,27.7650,-82.6490,1012.62,1111122 
COMPS,ioos:station:USF.COMPS:CAM:1,2008-10-08T22:00:00Z,27.7650,-82.6490,1012.49,1111122 
COMPS,ioos:station:USF.COMPS:CAM:1,2008-10-08T23:00:00Z,27.7650,-82.6490,1012.26,1111122 
COMPS,ioos:station:USF.COMPS:CAM:1,2008-10-09T00:00:00Z,27.7650,-82.6490,1012.48,1111122 
COMPS,ioos:station:USF.COMPS:CAM:1,2008-10-09T01:00:00Z,27.7650,-82.6490,1013.09,1111122 
COMPS,ioos:station:USF.COMPS:CAM:1,2008-10-09T02:00:00Z,27.7650,-82.6490,1013.58,1111122 
COMPS,ioos:station:USF.COMPS:CAM:1,2008-10-09T03:00:00Z,27.7650,-82.6490,1013.98,1111122 
COMPS,ioos:station:USF.COMPS:CAM:1,2008-10-09T04:00:00Z,27.7650,-82.6490,1013.98,1111122 
COMPS,ioos:station:USF.COMPS:CAM:1,2008-10-09T05:00:00Z,27.7650,-82.6490,1013.62,1111122 
COMPS,ioos:station:USF.COMPS:CAM:1,2008-10-09T06:00:00Z,27.7650,-82.6490,1013.1,1111122 
COMPS,ioos:station:USF.COMPS:CAM:1,2008-10-09T07:00:00Z,27.7650,-82.6490,1012.34,1111122 
COMPS,ioos:station:USF.COMPS:CAM:1,2008-10-09T08:00:00Z,27.7650,-82.6490,1011.34,1111122 
COMPS,ioos:station:USF.COMPS:CAM:1,2008-10-09T09:00:00Z,27.7650,-82.6490,1011.06,1111122 
COMPS,ioos:station:USF.COMPS:CAM:1,2008-10-09T10:00:00Z,27.7650,-82.6490,1010.97,1111122 
COMPS,ioos:station:USF.COMPS:CAM:1,2008-10-09T11:00:00Z,27.7650,-82.6490,1011.61,1111122 
COMPS,ioos:station:USF.COMPS:CAM:1,2008-10-09T12:00:00Z,27.7650,-82.6490,1012.72,1111122 
COMPS,ioos:station:USF.COMPS:CAM:1,2008-10-09T13:00:00Z,27.7650,-82.6490,1013.2,1111122 
COMPS,ioos:station:USF.COMPS:CAM:1,2008-10-09T14:00:00Z,27.7650,-82.6490,1013.32,1111122 
COMPS,ioos:station:USF.COMPS:CAM:1,2008-10-09T15:00:00Z,27.7650,-82.6490,1013.32,1111122 
COMPS,ioos:station:USF.COMPS:CAM:1,2008-10-09T16:00:00Z,27.7650,-82.6490,1012.93,1111122 
COMPS,ioos:station:USF.COMPS:CAM:1,2008-10-09T17:00:00Z,27.7650,-82.6490,1012.22,1111122 
COMPS,ioos:station:USF.COMPS:CAM:1,2008-10-09T18:00:00Z,27.7650,-82.6490,1011.3,1111122 
COMPS,ioos:station:USF.COMPS:CAM:1,2008-10-09T19:00:00Z,27.7650,-82.6490,1010.74,1111122 
COMPS,ioos:station:USF.COMPS:CAM:1,2008-10-09T20:00:00Z,27.7650,-82.6490,1010.54,1111122 
COMPS,ioos:station:USF.COMPS:CAM:1,2008-10-09T21:00:00Z,27.7650,-82.6490,1010.22,1111122 
COMPS,ioos:station:USF.COMPS:CAM:1,2008-10-09T22:00:00Z,27.7650,-82.6490,1010.1,1111122 
COMPS,ioos:station:USF.COMPS:CAM:1,2008-10-09T23:00:00Z,27.7650,-82.6490,1010.32,1111122 
COMPS,ioos:station:USF.COMPS:CAM:1,2008-10-10T00:00:00Z,27.7650,-82.6490,1011.37,1111122 
COMPS,ioos:station:USF.COMPS:CAM:1,2008-10-10T01:00:00Z,27.7650,-82.6490,1011.98,1111122 
COMPS,ioos:station:USF.COMPS:CAM:1,2008-10-10T02:00:00Z,27.7650,-82.6490,1012.77,1111122 
COMPS,ioos:station:USF.COMPS:CAM:1,2008-10-10T03:00:00Z,27.7650,-82.6490,1012.86,1111122 
COMPS,ioos:station:USF.COMPS:CAM:1,2008-10-10T04:00:00Z,27.7650,-82.6490,1012.32,1111122 
COMPS,ioos:station:USF.COMPS:CAM:1,2008-10-10T05:00:00Z,27.7650,-82.6490,1012.0,1111122 
COMPS,ioos:station:USF.COMPS:CAM:1,2008-10-10T06:00:00Z,27.7650,-82.6490,1011.86,1111122 
COMPS,ioos:station:USF.COMPS:CAM:1,2008-10-10T07:00:00Z,27.7650,-82.6490,1011.82,1111122 
COMPS,ioos:station:USF.COMPS:CAM:1,2008-10-10T08:00:00Z,27.7650,-82.6490,1011.6,1111122 
COMPS,ioos:station:USF.COMPS:CAM:1,2008-10-10T09:00:00Z,27.7650,-82.6490,1011.72,1111122 
COMPS,ioos:station:USF.COMPS:CAM:1,2008-10-10T10:00:00Z,27.7650,-82.6490,1011.84,1111122 
COMPS,ioos:station:USF.COMPS:CAM:1,2008-10-10T11:00:00Z,27.7650,-82.6490,1012.49,1111122 
COMPS,ioos:station:USF.COMPS:CAM:1,2008-10-10T12:00:00Z,27.7650,-82.6490,1012.76,1111122 
COMPS,ioos:station:USF.COMPS:CAM:1,2008-10-10T13:00:00Z,27.7650,-82.6490,1013.32,1111122 
COMPS,ioos:station:USF.COMPS:CAM:1,2008-10-10T14:00:00Z,27.7650,-82.6490,1013.88,1111122 
COMPS,ioos:station:USF.COMPS:CAM:1,2008-10-10T15:00:00Z,27.7650,-82.6490,1014.24,1111122 
COMPS,ioos:station:USF.COMPS:CAM:1,2008-10-10T16:00:00Z,27.7650,-82.6490,1013.84,1111122 
COMPS,ioos:station:USF.COMPS:CAM:1,2008-10-10T17:00:00Z,27.7650,-82.6490,1013.29,1111122 
COMPS,ioos:station:USF.COMPS:CAM:1,2008-10-10T18:00:00Z,27.7650,-82.6490,1012.53,1111122 
COMPS,ioos:station:USF.COMPS:CAM:1,2008-10-10T19:00:00Z,27.7650,-82.6490,1012.22,1111122 
COMPS,ioos:station:USF.COMPS:CAM:1,2008-10-10T20:00:00Z,27.7650,-82.6490,1012.26,1111122 
COMPS,ioos:station:USF.COMPS:CAM:1,2008-10-10T21:00:00Z,27.7650,-82.6490,1012.5,1111122 
COMPS,ioos:station:USF.COMPS:CAM:1,2008-10-10T22:00:00Z,27.7650,-82.6490,1012.62,1111122 
COMPS,ioos:station:USF.COMPS:CAM:1,2008-10-10T23:00:00Z,27.7650,-82.6490,1013.06,1111122 
COMPS,ioos:station:USF.COMPS:CAM:1,2008-10-11T00:00:00Z,27.7650,-82.6490,1013.29,1111122 
COMPS,ioos:station:USF.COMPS:CAM:1,2008-10-11T01:00:00Z,27.7650,-82.6490,1013.94,1111122 
COMPS,ioos:station:USF.COMPS:CAM:1,2008-10-11T02:00:00Z,27.7650,-82.6490,1014.28,1111122 
COMPS,ioos:station:USF.COMPS:CAM:1,2008-10-11T03:00:00Z,27.7650,-82.6490,1014.69,1111122 
COMPS,ioos:station:USF.COMPS:CAM:1,2008-10-11T04:00:00Z,27.7650,-82.6490,1014.33,1111122 
COMPS,ioos:station:USF.COMPS:CAM:1,2008-10-11T05:00:00Z,27.7650,-82.6490,1013.93,1111122 
COMPS,ioos:station:USF.COMPS:CAM:1,2008-10-11T06:00:00Z,27.7650,-82.6490,1013.89,1111122 
COMPS,ioos:station:USF.COMPS:CAM:1,2008-10-11T07:00:00Z,27.7650,-82.6490,1013.42,1111122 
COMPS,ioos:station:USF.COMPS:CAM:1,2008-10-11T08:00:00Z,27.7650,-82.6490,1012.61,1111122 
COMPS,ioos:station:USF.COMPS:CAM:1,2008-10-11T09:00:00Z,27.7650,-82.6490,1012.52,1111122 
COMPS,ioos:station:USF.COMPS:CAM:1,2008-10-11T10:00:00Z,27.7650,-82.6490,1013.1,1111122 
COMPS,ioos:station:USF.COMPS:CAM:1,2008-10-11T11:00:00Z,27.7650,-82.6490,1013.73,1111122 
COMPS,ioos:station:USF.COMPS:CAM:1,2008-10-11T12:00:00Z,27.7650,-82.6490,1014.09,1111122 
COMPS,ioos:station:USF.COMPS:CAM:1,2008-10-11T13:00:00Z,27.7650,-82.6490,1014.82,1111122 
COMPS,ioos:station:USF.COMPS:CAM:1,2008-10-11T14:00:00Z,27.7650,-82.6490,1015.46,1111122 
COMPS,ioos:station:USF.COMPS:CAM:1,2008-10-11T15:00:00Z,27.7650,-82.6490,1015.36,1111122 
COMPS,ioos:station:USF.COMPS:CAM:1,2008-10-11T16:00:00Z,27.7650,-82.6490,1015.02,1111122 
COMPS,ioos:station:USF.COMPS:CAM:1,2008-10-11T17:00:00Z,27.7650,-82.6490,1014.66,1111122 
COMPS,ioos:station:USF.COMPS:CAM:1,2008-10-11T18:00:00Z,27.7650,-82.6490,1013.93,1111122 
COMPS,ioos:station:USF.COMPS:CAM:1,2008-10-11T19:00:00Z,27.7650,-82.6490,1013.44,1111122 
COMPS,ioos:station:USF.COMPS:CAM:1,2008-10-11T20:00:00Z,27.7650,-82.6490,1012.96,1111122 
COMPS,ioos:station:USF.COMPS:CAM:1,2008-10-11T21:00:00Z,27.7650,-82.6490,1012.66,1111122 
COMPS,ioos:station:USF.COMPS:CAM:1,2008-10-11T22:00:00Z,27.7650,-82.6490,1012.8,1111122 
COMPS,ioos:station:USF.COMPS:CAM:1,2008-10-11T23:00:00Z,27.7650,-82.6490,1012.78,1111122 
COMPS,ioos:station:USF.COMPS:CAM:1,2008-10-12T00:00:00Z,27.7650,-82.6490,1013.21,1111122 
COMPS,ioos:station:USF.COMPS:CAM:1,2008-10-12T01:00:00Z,27.7650,-82.6490,1013.38,1111122 
COMPS,ioos:station:USF.COMPS:CAM:1,2008-10-12T02:00:00Z,27.7650,-82.6490,1014.21,1111122 